Regional Weather Roundup
Issued by NWS

Home | Current Version | Previous Version | Graphics & Text | Print | Product List | Glossary On
Versions: 1 2 3 4 5 6 7 8 9 10 11 12 13 14 15 16 17 18 19 20 21 22 23 24 25 26 27 28 29 30 31 32 33 34 35 36 37 38 39 40 41 42 43 44 45 46 47 48 49 50
000
ASUS43 KMKX 290421
RWRWI

WISCONSIN REGIONAL WEATHER ROUNDUP
NATIONAL WEATHER SERVICE MILWAUKEE/SULLIVAN WI
1100 PM CDT THU JUL 28 2016

NOTE: "FAIR" INDICATES FEW OR NO CLOUDS BELOW 12,000 FEET WITH NO
SIGNIFICANT WEATHER AND/OR OBSTRUCTIONS TO VISIBILITY.

WIZ001-002-006>008-014>016-023>028-290500-
NORTHWEST WISCONSIN

CITY           SKY/WX    TMP DP  RH WIND       PRES   REMARKS
SUPERIOR ARPT  CLEAR     59  58  97 NE3       30.09S
ASHLAND        CLEAR     54  53  97 N3        30.10S
HAYWARD        CLEAR     56  52  86 N6        30.08F
SIREN          NOT AVBL
CUMBERLAND     CLEAR     59  52  77 NE8       30.07S
RICE LAKE      MOCLDY    62  55  76 CALM      30.08R
CHETEK         CLEAR     65  57  74 NE5       30.06S
LADYSMITH      PTCLDY    62  57  82 NE5       30.08S
EAU CLAIRE     LGT RAIN  65  62  90 W3        30.04R
MENOMONIE      CLOUDY    65  62  87 CALM      30.04F
NEW RICHMOND   CLEAR     63  56  78 NE3       30.06R
OSCEOLA        CLEAR     64  56  75 CALM      30.08R
$$

WIZ003>005-009-010-017-018-290500-
NORTH CENTRAL WISCONSIN

CITY           SKY/WX    TMP DP  RH WIND       PRES   REMARKS
MANITOWISH WTR CLEAR     55  55  98 CALM      30.10S
ARBOR VITAE    CLEAR     57  53  86 CALM      30.10R
WOODRUFF       CLEAR     57  53  86 CALM      30.10R
RHINELANDER    PTCLDY    57  52  83 NE3       30.09R
EAGLE RIVER    CLEAR     53  52  99 CALM      30.09S
LAND O LAKES   CLEAR     55  51  84 N3        30.10S
PHILLIPS       CLEAR     58  55  89 NE6       30.08S
TOMAHAWK       CLOUDY    58  51  77 CALM      30.09R
MEDFORD        CLOUDY    64  59  86 NE8       30.06R
MERRILL        CLOUDY    64  57  80 NE7       30.07R
$$

WIZ029-030-035-036-043>047-290500-
CENTRAL WISCONSIN

CITY           SKY/WX    TMP DP  RH WIND       PRES   REMARKS
WAUSAU         CLOUDY    66  59  78 CALM      30.03S
MOSINEE        CLOUDY    63  61  94 NE8       30.05S
MARSHFIELD     CLOUDY    66  61  84 NE7       30.03S
STEVENS POINT  CLOUDY    63  60  92 NE6       30.03S
WAUPACA        MOCLDY    67  65  91 CALM      30.02R
WAUTOMA        MOCLDY    65  61  87 NE6       30.01R
WISC RAPIDS    CLOUDY    66  60  81 N7        30.04R
CAMP DOUGLAS   CLOUDY    65  64  93 N5        30.01R
$$

WIZ011>013-019>022-031-037>040-048>050-290500-
NORTHEAST WISCONSIN

CITY           SKY/WX    TMP DP  RH WIND       PRES   REMARKS
ANTIGO         CLOUDY    61  55  80 CALM      30.07R
SHAWANO        CLOUDY    67  57  71 NE9G16    30.03S
OCONTO         CLOUDY    63  58  83 NE6       30.03R
STURGEON BAY   CLOUDY    65  58  78 N8        30.03R
GREEN BAY      CLOUDY    67  60  78 N13       30.01R
MANITOWOC      CLOUDY    65  63  93 N5        29.99S
APPLETON       CLOUDY    64  57  77 N10       30.00R
CLINTONVILLE   CLOUDY    64  55  72 NE13      30.02S
OSHKOSH        HVY RAIN  67  60  78 NE12      29.99S
$$

WIZ032>034-041-042-053>061-290500-
SOUTHWEST WISCONSIN

CITY           SKY/WX    TMP DP  RH WIND       PRES   REMARKS
LA CROSSE      CLOUDY    64  62  93 N6        30.00S
SPARTA         CLOUDY    62  61  96 CALM      30.02S
VIROQUA        CLOUDY    65  65 100 NE7       30.00S
BOSCOBEL       CLOUDY    71  66  84 VRB3      29.96S
PRAIRIE DU CHI LGT RAIN  67  65  96 CALM      29.96S
PLATTEVILLE    CLOUDY    70  69  96 NE9       29.96R
$$

WIZ056-057-062-063-064-067-068-290500-
SOUTH CENTRAL WISCONSIN

CITY           SKY/WX    TMP DP  RH WIND       PRES   REMARKS
REEDSBURG      CLOUDY    67  64  87 NE6       29.98S
BARABOO/DELLS  CLOUDY    66  60  80 NE9       29.98F
LONE ROCK      CLOUDY    70  64  81 NE7       29.97S
MINERAL POINT  CLOUDY    70  68  94 E7        29.97S
MADISON        CLOUDY    69  61  75 NE7       29.97R
MIDDLETON      CLOUDY    69  64  83 NE6       29.97F
WATERTOWN      CLOUDY    66  60  79 NE6       29.97R
MONROE         CLOUDY    68  64  88 NE10      29.96S
JANESVILLE     CLOUDY    68  64  88 NE5       29.95S
$$

WIZ051-052-058>065-066-070>072-290500-
SOUTHEAST WISCONSIN

CITY           SKY/WX    TMP DP  RH WIND       PRES   REMARKS
MILWAUKEE      CLOUDY    68  63  84 N13       29.95S
WAUKESHA       CLOUDY    63  59  88 NE5       29.98S
MILWAUKEE/TIMM CLOUDY    66  59  77 NE8       29.97S
RACINE         CLOUDY    67  63  87 N10       29.96S
BURLINGTON     CLOUDY    67  64  92 N5        29.95S
KENOSHA        CLOUDY    68  66  93 N7        29.95R
FOND DU LAC    LGT RAIN  66  60  81 NE10      29.99S
SHEBOYGAN      CLOUDY    65  60  84 NE16      29.98R
WEST BEND      MOCLDY    63  57  82 NE6       29.98S
JUNEAU         CLOUDY    64  60  85 N7        30.00R
$$

LSZ147-162-290500-
LAKE SUPERIOR

STATION/POSITION TIME  TEMP    WIND        PRES    WAVE
                       AIR SEA DIR/SP/G            HT/PER
                 (UTC) (F)     (DEG/KT/KT) (MB)    (FT/S)
W MID LAKE BUOY  0350   61 60  350/  6/  8 1018.8R   1/ 4
DEVILS ISLAND    0400   63      20/  5/  6 1019.4S
PORT WING        0300   58     170/  2/  3 1019.3
SAXON HARBOR     0340   56     190/  4/  5 1018.6R
$$

LMZ867-665-643>646-290500-
LAKE MICHIGAN

STATION/POSITION TIME  TEMP    WIND        PRES    WAVE
                       AIR SEA DIR/SP/G            HT/PER
                 (UTC) (F)     (DEG/KT/KT) (MB)    (FT/S)
CHAMBERS ISLAND  0300   67     360/ 17/ 21 1016.3S
N MID LAKE BUOY  0350   66 69   10/ 19/ 23 1015.2F   4/ 4
NORTHPORT PIER   0300   67      10/ 12/ 17 1016.3S
SISTER BAY       0306   65      10/ 11/ 15   N/A
ALGOMA LAKESHORE 0343          360/  8/ 10   N/A
KEWAUNEE LAKESHO 0300           10/  5/  8   N/A
SHEBOYGAN LAKESH 0400   61     350/ 14/ 15 1015.5R
PORT WASHINGTON  0340   68      10/  8/ 13 1015.2R
ATWATER BUOY     0300   64 63  360/ 12/ 16 1015.6R
MILWAUKEE LAKESH 0410   66     360/ 14/ 16   N/A
S MID LAKE BUOY  0350   74 75   70/  8/ 10 1012.7R   3/ 6
KENOSHA   LAKESH 0400   69     350/ 10/ 13 1013.5R
$$

TC  - TEMPERATURE IN CELSIUS
VSB - VISIBILITY IN STATUTE MILES
WCI - WIND CHILL INDEX
HX  - HEAT INDEX





USA.gov is the U.S. government's official web portal to all federal, state and local government web resources and services.